TIME,DELAY(SENSOR),PRES,T(CTD),SAL,OXYGEN,RAWTEMP,T(OPTODE),TCPHASE,FLUOR,BETA(BETA700),BETA(BETA412),BETA(BETA440),CDOM,C(CSC),ED(ED411.90),ED(ED443.80),ED(ED489.40),ED(ED554.70),LU(LU412.20),LU(LU443.80),LU(LU489.40),LU(LU555.00),COMP,TILTX,TILTX(TILTY),CHECK
1376492498,5806,497.3599853515625000,16.2907009124755860,36.2141990661621100,183.3166046142578000,211.7299957275390600,16.2948398590087900,34.4226493835449200,79,1467,54,52,53,10358,2146957888,2147514212,2147276507,2147465792,2147082322,2146951488,2147658916,2147124132,2489,-1,8,11904
1376492613,5802,486.1600036621094000,16.4164009094238280,36.2323989868164060,184.0137023925781200,207.4196014404297000,16.4247303009033200,34.3144912719726560,78,1450,54,54,53,10357,2146958272,2147516160,2147273563,2147460178,2147081782,2146951972,2147651977,2147121481,1687,-2,8,50559
1376492731,5806,475.2900085449219000,16.6728000640869140,36.2812995910644500,188.2261047363281200,199.4076995849609400,16.6661891937255860,33.9286918640136700,79,1451,54,55,53,10359,2146959826,2147514358,2147273389,2147460827,2147083565,2146950656,2147654866,2147119881,447,-1,8,25262
1376492858,5805,464.5000000000000000,16.7905998229980470,36.2990989685058600,187.9057006835937500,194.8836975097656200,16.8025608062744140,33.8837509155273440,78,1453,53,55,53,10357,2146960548,2147514925,2147272786,2147461184,2147081499,2146955922,2147655515,2147122267,3306,-2,8,56077
1376492999,5803,453.0400085449219000,17.1051998138427730,36.3634986877441400,192.8717041015625000,185.2707977294922000,17.0923805236816400,33.4370117187500000,80,1451,55,55,51,10360,2146962998,2147511058,2147273097,2147456283,2147080000,2146955072,2147654198,2147125321,3108,-1,8,28232
1376493126,5803,442.7600097656250000,17.2224006652832030,36.3815002441406250,194.0003051757812500,181.2545928955078000,17.2134895324707030,33.3115196228027340,80,1468,54,53,53,10358,2146960594,2147513316,2147273353,2147459529,2147081389,2146958089,2147653650,2147125330,2431,-1,8,8092
1376493265,5809,431.4700012207031000,17.3892993927001950,36.4121017456054700,197.0171966552734400,175.3376007080078000,17.3919696807861330,33.0460281372070300,79,1454,55,54,52,10357,2146960859,2147512896,2147272201,2147457142,2147083264,2146953234,2147652608,2147112201,1755,-1,8,63566
1376493395,5806,420.6799926757812500,17.6222991943359380,36.4626998901367200,202.5850067138672000,168.0032043457031200,17.6132602691650400,32.6164093017578100,79,1471,54,54,51,10360,2146958720,2147516123,2147272292,2147454125,2147081526,2146952786,2147651346,2147123364,762,-1,8,63623
1376493522,5805,409.7699890136719000,17.7234001159667970,36.4852981567382800,208.0348968505859400,164.5305938720703000,17.7180690765380860,32.2587699890136700,78,1442,55,55,52,10358,2146960512,2147512420,2147269549,2147454162,2147082148,2146952246,2147649426,2147127579,3001,-1,8,39737
1376493651,5801,398.3099975585937500,17.7483997344970700,36.4846992492675800,209.6912994384765600,163.4438018798828000,17.7508697509765620,32.1518707275390600,79,1465,54,55,52,10358,2146960320,2147508918,2147270189,2147450523,2147080978,2146962496,2147650706,2147124772,1992,-1,8,27288
1376493778,5806,386.7699890136719000,17.8929004669189450,36.5121002197265600,209.8298950195312500,158.8493041992187500,17.8895797729492200,32.0808982849121100,78,1465,52,54,53,10358,2146961645,2147513307,2147270134,2147451328,2147082084,2146953947,2147651062,2147124836,1373,-1,8,2288
1376493893,5801,376.1400146484375000,18.0011997222900400,36.5368003845214840,213.6233062744140600,155.3686065673828000,17.9946804046630860,31.8260402679443360,78,1445,54,55,52,10359,2146959661,2147515958,2147273115,2147450614,2147078930,2146959524,2147652196,2147127725,1083,-1,8,64306
1376494011,5803,365.3299865722656000,18.0708999633789060,36.5502014160156250,214.8831939697265600,152.9945983886718800,18.0663795471191400,31.7257499694824220,78,1444,54,54,53,10358,2146959286,2147514779,2147268507,2147451693,2147081865,2146955117,2147649627,2147128512,317,-1,8,43729
1376494138,5806,353.8900146484375000,18.1324005126953120,36.5577011108398440,215.0825958251953000,150.9808959960937500,18.1272106170654300,31.6877002716064450,78,1438,55,54,52,10357,2146961764,2147514962,2147271204,2147451657,2147083126,2146958646,2147648411,2147131382,3058,-1,8,6857
1376494255,5808,343.3900146484375000,18.1961994171142580,36.5638008117675800,214.6979980468750000,148.7619018554687500,18.1942405700683600,31.6780300140380860,79,1467,54,54,53,10356,2146961490,2147511643,2147267629,2147453193,2147083812,2146952128,2147650011,2147127186,2680,-1,8,56303
1376494382,5800,332.0899963378906000,18.2460002899169920,36.5674018859863300,213.1282958984375000,146.5565948486328000,18.2608795166015620,31.7325897216796880,79,1481,54,55,52,10360,2146959460,2147517019,2147268873,2147450889,2147081106,2146953792,2147650029,2147127414,2395,-1,8,8268
1376494509,5808,321.3099975585937500,18.3097991943359380,36.5672988891601560,209.9237976074218800,144.7586059570312500,18.3152103424072270,31.8824806213378900,79,1452,53,55,53,10358,2146959424,2147515090,2147268955,2147449590,2147078811,2146955264,2147645376,2147127149,1840,-1,8,32890
1376494639,5806,310.7900085449219000,18.4265003204345700,36.5778007507324200,207.0552978515625000,141.3114929199218800,18.4193992614746100,31.9945697784423830,79,1464,54,54,52,10358,2146960118,2147514422,2147267419,2147449828,2147075456,2146951213,2147643712,2147127378,1115,-2,8,883
1376494778,5806,300.0899963378906000,18.5273990631103500,36.5835990905761700,206.7113037109375000,137.9772033691406200,18.5202007293701170,31.9681491851806640,80,1453,53,55,52,10357,2146959387,2147514093,2147266962,2147450358,2147074752,2146957586,2147646537,2147126985,500,-1,8,18495
1376494945,5805,286.0799865722656000,18.5694007873535160,36.5654983520507800,214.9353027343750000,136.4532012939453000,18.5662803649902340,31.4980907440185550,79,1462,54,54,51,10351,2146958134,2147514697,2147269906,2147449581,2147083227,2146954102,2147647734,2147124635,259,-1,7,36536
1376495059,5803,275.0199890136719000,18.5650005340576170,36.5626983642578100,228.7463073730468800,136.7133026123047000,18.5584201812744140,30.7918205261230470,78,1484,53,54,51,10348,2146959634,2147513270,2147268836,2147450386,2147077970,2146961737,2147646838,2147126262,2980,-2,8,58028
1376495176,5802,264.0000000000000000,18.6228008270263670,36.5624008178710940,236.3549041748047000,134.4335937500000000,18.6273593902587900,30.3920707702636720,79,1491,54,55,52,10343,2146956370,2147515593,2147267355,2147448365,2147075209,2146958473,2147648466,2147129590,1867,-2,7,36828
1376495291,5804,253.1300048828125000,18.7098007202148440,36.5657005310058600,236.2821960449218800,131.8881988525390600,18.7043495178222660,30.3619403839111330,79,1417,53,54,51,10337,2146961947,2147512356,2147268507,2147447058,2147070198,2146958363,2147645248,2147127286,1222,-1,8,62478
1376495406,5808,242.0899963378906200,18.9146003723144530,36.5752983093261700,236.0570983886718800,125.2257995605468800,18.9059505462646500,30.2844791412353500,79,1458,53,55,52,10342,2146958893,2147516160,2147267556,2147446262,2147075584,2146961270,2147647606,2147128274,1746,-1,8,16533
1376495523,5803,231.2799987792968800,19.2262992858886720,36.5915985107421900,233.5491027832031200,114.7052993774414000,19.2245292663574220,30.2660408020019530,79,1450,54,55,52,10347,2146962230,2147513188,2147266944,2147446774,2147078482,2146963154,2147653019,2147128612,1470,-2,8,3450
1376495650,5807,220.7700042724609400,19.5060005187988280,36.6366004943847660,223.9701995849609400,105.6659011840820300,19.4985103607177730,30.6180000305175780,77,1464,54,54,54,10353,2146957696,2147514057,2147267812,2147443264,2147081810,2146968868,2147656896,2147128777,453,-1,8,19602
1376495791,5806,209.6000061035156200,19.8533000946044920,36.6720008850097660,205.0167999267578000,94.0675735473632800,19.8504390716552730,31.4686698913574220,79,1444,53,55,54,10353,2146960219,2147513865,2147269924,2147442870,2147084233,2146971437,2147660937,2147130166,2954,-2,8,39949
1376495942,5803,198.3600006103515600,20.0128993988037100,36.6372985839843750,221.5193023681640600,87.9984436035156200,20.0347690582275400,30.5093994140625000,79,1461,53,55,52,10349,2146958299,2147516589,2147269961,2147437888,2147078244,2146973723,2147675346,2147132946,2850,-1,8,21816
1376495997,5808,194.2899932861328000,20.1049003601074220,36.6427001953125000,224.8563995361328000,85.9555587768554700,20.0968399047851560,30.3144397735595700,78,1438,55,54,51,10349,2146959643,2147516150,2147270710,2147437257,2147083830,2146984283,2147685321,2147128384,2677,-1,8,46252
1376496052,5804,190.3000030517578000,20.1916007995605470,36.6478004455566400,226.1280975341797000,81.7900466918945300,20.2234592437744140,30.1967201232910160,78,1477,54,53,52,10352,2146959634,2147514688,2147268480,2147440731,2147081453,2146985691,2147693257,2147129252,1964,-1,9,45652
1376496133,5807,184.8999938964843800,20.3299999237060550,36.6628990173339840,224.9875030517578000,78.4400329589843800,20.3253402709960940,30.2098007202148440,78,1447,54,55,51,10355,2146959030,2147516534,2147269156,2147439204,2147084452,2146988809,2147693229,2147131264,1851,-1,8,61670
1376496200,5804,181.1600036621093800,20.4929008483886720,36.6632003784179700,224.5157928466797000,72.6299362182617200,20.5021400451660160,30.1574802398681640,78,1455,53,54,52,10350,2146957357,2147516534,2147268032,2147436992,2147082614,2146991872,2147692736,2147129536,1444,-1,8,47319
1376496279,5807,177.3200073242187500,20.6697998046875000,36.6502990722656250,225.1237030029297000,66.9448623657226600,20.6752490997314450,30.0532894134521500,78,1450,54,54,51,10345,2146960009,2147516800,2147269760,2147436260,2147079872,2146988461,2147691757,2147130020,1743,-1,8,22022
1376496370,5804,173.7700042724609400,20.9029006958007800,36.6613998413085940,226.7913970947265600,60.0197105407714840,20.8863105773925780,29.8812408447265620,79,1457,54,53,51,10348,2146957494,2147517138,2147266166,2147440484,2147082304,2146995236,2147701979,2147133979,1579,-1,8,39175
1376496476,5806,169.4499969482422000,21.0417003631591800,36.6386985778808600,228.3318023681640600,55.4635581970214840,21.0252799987792970,29.7473602294921880,79,1463,54,54,50,10348,2146959232,2147515044,2147267986,2147434505,2147084973,2147009344,2147722660,2147135890,1778,-1,8,63203
1376496579,5803,166.3000030517578000,21.3085002899169920,36.6282997131347660,230.4365997314453000,46.9929695129394500,21.2838897705078120,29.5367107391357420,81,1463,54,55,51,10344,2146959021,2147513956,2147269421,2147434285,2147089929,2147014372,2147741421,2147136164,2927,-2,8,47115
1376496877,5805,162.0299987792968800,21.7117996215820300,36.6491012573242200,223.3701019287109400,33.3845100402832000,21.7000503540039060,29.7064990997314450,79,1456,54,53,50,10346,2146961325,2147514578,2147267949,2147431378,2147092635,2147040557,2147783990,2147136347,1076,-2,9,35155
1376497028,5803,158.3999938964843800,21.9270000457763670,36.6692008972168000,218.7149963378906200,26.5925197601318360,21.9080905914306640,29.8524208068847660,79,1456,53,54,50,10348,2146956891,2147518061,2147267611,2147430208,2147091245,2147043117,2147775396,2147138121,1610,-2,8,4041
1376497173,5809,153.9299926757812500,22.1499996185302730,36.6750984191894500,217.6761016845703000,19.1974601745605470,22.1348800659179700,29.8099899291992200,79,1455,53,53,51,10346,2146958628,2147518189,2147266578,2147428434,2147095241,2147062994,2147810514,2147138185,947,-1,8,17880
1376497276,5805,149.5399932861328000,22.2562007904052730,36.6439018249511700,219.1873931884765600,15.6091499328613280,22.2450199127197270,29.6872596740722660,79,1452,54,53,50,10339,2146959350,2147516068,2147267483,2147426569,2147100946,2147087094,2147850249,2147140278,693,-2,9,43145
1376497367,5805,145.4400024414062500,22.7140007019042970,36.6470985412597660,222.2951965332031200,-0.4537760913372040,22.7389392852783200,29.3268699645996100,79,1450,54,55,51,10336,2146960676,2147518025,2147268205,2147427501,2147102189,2147082578,2147832393,2147142674,562,-1,8,54955
1376497477,5804,142.4100036621093800,23.2957992553710940,36.6549987792968750,211.2492980957031200,-17.0729598999023440,23.2515201568603500,29.6758308410644530,79,1441,53,54,52,10338,2146959277,2147515611,2147268827,2147425654,2147107282,2147107922,2147878902,2147143305,1500,-2,8,60091
1376497838,5806,137.7799987792968800,23.5317001342773440,36.6528015136718750,201.4235992431640600,-25.8268795013427730,23.5221900939941400,30.0907096862792970,79,1447,54,54,52,10340,2146962130,2147517001,2147268187,2147420882,2147116178,2147144246,2147934674,2147148553,626,-1,8,1950
1376497929,5805,133.9799957275390600,23.6763992309570300,36.6484985351562500,199.5446014404297000,-29.9429302215576170,23.6496295928955080,30.1415405273437500,78,1448,53,55,51,10342,2146959186,2147518939,2147272274,2147421065,2147136036,2147216914,2148046994,2147158006,1213,-1,8,49387
1376498063,5807,129.2899932861328000,23.9088001251220700,36.6390991210937500,198.0901947021484400,-37.5122604370117200,23.8842697143554700,30.1250495910644530,78,1448,53,55,52,10339,2146960201,2147520283,2147277476,2147416402,2147150272,2147270390,2148131245,2147162029,1869,-2,9,35488
1376498154,5800,125.7300033569336000,24.2917003631591800,36.6152992248535160,195.4566040039062500,-50.8874397277832000,24.2998199462890620,30.1005592346191400,80,1449,54,55,52,10336,2146959734,2147516361,2147274989,2147417764,2147152914,2147265965,2148116598,2147159634,1604,-2,9,6754
1376498419,5804,122.1399993896484400,24.6578006744384770,36.5780982971191400,184.7964935302734400,-64.0457687377929700,24.7098598480224600,30.5548191070556640,79,1444,54,55,52,10329,2146961124,2147514166,2147263213,2147414555,2147110637,2147091382,2147811565,2147143506,1504,-1,9,25810
1376498672,5805,118.2300033569336000,24.9937000274658200,36.5432014465332000,186.3294982910156200,-73.0030670166015600,24.9897098541259770,30.3455390930175780,79,1445,54,54,51,10325,2146957952,2147516882,2147268992,2147410496,2147139766,2147171785,2147937133,2147153124,1548,-2,9,10910
1376498823,5803,114.3300018310546900,25.1518993377685550,36.5213012695312500,188.9633026123047000,-77.7479629516601600,25.1382007598876950,30.1277198791503900,80,1443,55,56,51,10328,2146963136,2147518098,2147269165,2147410560,2147160054,2147229897,2148023478,2147159771,1288,-2,9,51879
1376498980,5807,110.0299987792968800,25.3146991729736330,36.4958000183105500,191.1808013916015600,-83.4105224609375000,25.3156299591064450,29.9253501892089840,80,1436,53,55,52,10324,2146962450,2147517494,2147265636,2147410651,2147148937,2147180662,2147933147,2147156224,992,-2,8,41820
1376499071,5806,107.0500030517578100,25.5706005096435550,36.4500007629394500,196.9609985351562500,-90.7805862426757800,25.5469398498535160,29.5026798248291000,82,1458,53,54,51,10313,2146961216,2147522075,2147273910,2147408283,2147194934,2147291657,2148108544,2147167387,22,-1,9,14294
1376499210,5805,103.2399978637695300,25.5792007446289060,36.4379997253418000,198.7792968750000000,-91.7161788940429700,25.5763301849365230,29.3900108337402340,82,1449,55,54,51,10309,2146965357,2147525330,2147276772,2147408018,2147249865,2147407213,2148266102,2147181750,3152,-2,9,50251
1376499344,5804,99.2399978637695300,25.9668998718261720,36.3646011352539060,206.1033020019531200,-103.1136016845703100,25.9349803924560550,28.8515491485595700,82,1448,54,54,51,10290,2146965933,2147527789,2147280256,2147407908,2147294400,2147479058,2148353517,2147190262,2800,-2,9,57636
1376499435,5803,97.2200012207031200,26.1089992523193360,36.3510017395019500,203.9450073242187500,-107.7602996826171900,26.0815105438232420,28.9070091247558600,87,1506,54,55,51,10291,2146966189,2147524096,2147280054,2147407094,2147307757,2147496676,2148368804,2147193334,2410,-2,8,42938
1376499526,5803,95.3799972534179700,26.1653003692626950,36.3422012329101560,202.6069946289062500,-109.9145965576171900,26.1495094299316400,28.9509792327880860,84,1437,54,55,52,10282,2146967030,2147529051,2147287314,2147405037,2147353462,2147587236,2148499638,2147206006,1387,-2,9,14693
1376499635,5808,92.7600021362304700,26.2182998657226560,36.3263015747070300,203.2292022705078000,-112.0867996215820300,26.2181091308593750,28.8903408050537100,83,1442,54,54,50,10282,2146967360,2147532032,2147287442,2147405805,2147385654,2147625069,2148539702,2147211931,1008,-1,8,47767
1376499690,5803,90.9599990844726600,26.4041004180908200,36.2989006042480500,204.1392974853515600,-116.8755035400390600,26.3694801330566400,28.7814693450927730,85,1445,54,54,50,10273,2146975890,2147538221,2147294765,2147407561,2147472832,2147781549,2148755803,2147231140,1181,-1,9,24422
1376499769,5805,89.6600036621093800,26.4867000579834000,36.2801017761230500,207.1013031005859400,-120.0768966674804700,26.4707908630371100,28.5857791900634770,86,1447,53,54,50,10273,2146977115,2147541760,2147308242,2147404763,2147611922,2148055030,2149131081,2147267282,1618,-2,9,7826
1376499974,5807,87.0599975585937500,26.5981998443603500,36.2655982971191400,213.9037017822265600,-123.9064025878906200,26.5920906066894530,28.1911697387695300,84,1445,53,55,50,10264,2146984658,2147555501,2147325824,2147404352,2147800274,2148335012,2149497691,2147306084,1634,-1,8,30138
1376500029,5807,84.7300033569336000,26.6000995635986330,36.2658996582031250,216.7234039306640600,-124.1102981567382800,26.5985507965087900,28.0486907958984380,86,1447,54,54,51,10121,2146991296,2147562550,2147342921,2147406921,2147997769,2148638281,2149875556,2147347629,1742,-2,9,54481
1376500084,5806,81.9899978637695300,26.7029991149902340,36.2467002868652340,219.7967071533203000,-127.2098999023437500,26.6968307495117200,27.8604393005371100,84,1442,54,54,50,10265,2147002861,2147580964,2147365366,2147406025,2148313545,2149134089,2150497225,2147416521,1722,-2,9,22618
1376500139,5805,79.4700012207031200,26.7772998809814450,36.2388992309570300,223.5921936035156200,-129.3739013671875000,26.7654991149902340,27.6522407531738280,87,1583,52,55,51,10261,2147013202,2147598784,2147387392,2147410313,2148606601,2149579346,2151031734,2147477778,1260,-1,9,196
1376500225,5808,75.9199981689453100,26.8731994628906250,36.2205009460449200,228.9832000732422000,-132.7086029052734400,26.8713893890380860,27.3597602844238280,83,1435,54,55,51,10267,2147038445,2147625536,2147426093,2147413394,2149180324,2150402825,2151971328,2147595035,1013,-1,9,11826
1376500280,5803,73.5199966430664000,26.9323005676269530,36.2112007141113300,232.3950042724609400,-134.4441070556640600,26.9265499114990230,27.1828594207763670,83,1446,53,55,50,10270,2147057371,2147651337,2147463853,2147415012,2149716873,2151153371,2152788955,2147695378,988,-1,9,65441
1376500335,5804,71.3300018310546900,26.9951992034912100,36.2022018432617200,236.8247985839843800,-136.3444061279297000,26.9869709014892580,26.9618396759033200,83,1442,53,55,50,10271,2147078537,2147675117,2147494710,2147416228,2150270016,2151891602,2153556955,2147788653,959,-1,8,58536
1376500390,5807,69.3899993896484400,27.1082000732421880,36.1888999938964840,241.2400970458984400,-140.0617980957031200,27.1052608489990230,26.7240905761718750,82,1438,53,54,50,10273,2147096265,2147700361,2147520000,2147419126,2150754806,2152502994,2154170459,2147864630,1013,-1,8,51665
1376500445,5802,67.6299972534179700,27.1674003601074220,36.1839981079101560,247.4214019775390600,-141.7814025878906200,27.1600208282470700,26.4405097961425780,82,1438,53,55,50,10276,2147114395,2147720201,2147540928,2147420836,2151194075,2153053888,2154672045,2147928365,1269,-1,9,62453
1376500530,5808,64.4400024414062500,27.2520999908447270,36.1930007934570300,253.9001007080078000,-144.2738037109375000,27.2394409179687500,26.1432495117187500,82,1432,53,54,50,10275,2147164388,2147769526,2147598226,2147426432,2152388745,2154486080,2155941385,2148089435,1877,-1,8,45741
1376500585,5803,61.5999984741210940,27.2572002410888670,36.1769981384277340,257.1412963867187500,-145.4394073486328000,27.2765998840332030,25.9986400604248050,81,1427,53,56,50,10271,2147207131,2147815094,2147640100,2147429705,2153487853,2155739702,2157000786,2148232941,1802,-2,8,7560
1376500640,5808,58.8699989318847660,27.3633003234863280,36.1613006591796900,262.7561035156250000,-147.7239990234375000,27.3494796752929700,25.7495098114013670,80,1432,54,55,50,10272,2147256301,2147865334,2147686628,2147436544,2154725348,2157114249,2158132800,2148392347,1712,-1,9,17645
1376500695,5807,56.3199996948242200,27.3931007385253900,36.1552009582519500,271.0151062011719000,-149.0726013183593800,27.3925209045410160,25.4170799255371100,82,1435,52,55,49,10271,2147308909,2147918948,2147734290,2147438043,2156043300,2158537792,2159261622,2148555401,1918,-1,8,13441
1376500837,5808,51.6100006103515600,27.6930007934570300,36.1152992248535160,286.9843139648437500,-158.7601013183593800,27.7022094726562500,24.7224597930908200,82,1432,54,55,50,10245,2147439588,2148036809,2147844800,2147449389,2159102582,2161766573,2161813494,2148947254,1066,-2,8,12685
1376500874,5806,50.5400009155273440,27.9069995880126950,36.0780982971191400,286.9549865722656000,-164.2922973632812500,27.8794708251953120,24.6591091156005860,80,1432,54,55,49,10253,2147470509,2148065398,2147870244,2147456557,2159845595,2162540306,2162414464,2149044699,869,-2,8,1690
1376500999,5805,48.9700012207031250,27.9454994201660160,36.0732002258300800,316.3955993652344000,-166.1994018554687500,27.9406394958496100,23.6580104827880860,81,1420,52,56,50,10249,2147525458,2148121097,2147929609,2147460781,2161186176,2164109595,2163875529,2149274422,736,-2,8,13412
1376501283,5805,46.8800010681152340,28.0690002441406250,36.0233993530273440,331.0469970703125000,-170.0980987548828000,28.0658092498779300,23.1637992858886720,81,1417,52,55,50,10256,2147739419,2148327104,2148105691,2147478884,2166203958,2169510454,2168355574,2149936338,279,-2,9,2798
1376501381,5803,44.8600006103515600,28.0799007415771500,36.0181007385253900,358.0567016601562500,-170.7295989990234400,28.0860996246337900,22.3822803497314450,80,1416,52,54,50,10268,2147885293,2148460086,2148229632,2147492150,2169571648,2172988434,2171073325,2150368173,3485,-6,8,36335
1376501508,5804,42.5200004577636700,28.0963001251220700,36.0125999450683600,363.2597045898437500,-171.1988983154297000,28.1011791229248050,22.2351894378662100,80,1412,53,55,49,10269,2148104329,2148656548,2148387986,2147516324,2174787565,2178269083,2175052644,2151015506,2931,-1,9,35203
1376501567,5806,40.7999992370605500,28.1035003662109380,36.0096015930175800,359.2457885742187500,-171.4279937744140600,28.1085491180419920,22.3418006896972660,81,1407,52,56,50,10265,2148319789,2148844626,2148549129,2147539382,2180196077,2183609792,2178897161,2151608109,2781,-2,8,51520
1376501626,5808,38.9000015258789060,28.0998001098632800,36.0042991638183600,363.7269897460937500,-171.3697052001953000,28.1066703796386720,22.2206401824951170,79,1398,52,55,50,10260,2148539821,2149031561,2148693028,2147559616,2185881362,2189192448,2182806326,2152306752,2611,-2,8,47650
1376501659,5806,37.7299995422363300,28.0986003875732420,36.0023994445800800,371.4718017578125000,-171.3722991943359400,28.1067600250244140,22.0137691497802730,80,1400,52,54,49,10254,2148669321,2149152576,2148785325,2147575652,2189368804,2192583387,2185156681,2152690176,2567,-2,9,19748
1376501718,5806,35.5299987792968750,28.1026000976562500,35.9971008300781250,378.6799011230469000,-171.5276031494140600,28.1117496490478500,21.8236694335937500,80,1402,53,55,50,10256,2149013275,2149461504,2149053641,2147623442,2198522532,2201744603,2191975771,2153963766,1824,-2,9,16077
1376501764,5802,33.6599998474121100,28.1065998077392580,35.9928016662597660,395.7821044921875000,-171.6278991699218800,28.1149692535400400,21.3906307220459000,79,1386,53,55,50,10260,2149257014,2149676242,2149239890,2147665938,2205550052,2208638491,2196984128,2154975789,1504,-2,8,12019
1376501828,5808,30.6299991607666000,28.1182003021240230,35.9837989807128900,409.3717956542969000,-172.0095062255859400,28.1272392272949220,21.0571708679199220,80,1412,52,54,49,10256,2149717403,2150079524,2149570029,2147751058,2218032603,2220719817,2205669558,2156987977,1280,-3,10,6326